Temperature
17 18 18 18 15 13 15 16 16 16 15 15 15 14 13 12 13 12 11 11 12 12 12 12 12 12 12 13 13 13 13 13 13 13 13 14 14 14 14 14 14 14 14 14 14 14 14 14 14
17 18 18 17 13 14 15 15 15 15 15 15 14 13 12 11 11 11 11 11 11 12 12 12 12 12 12 12 12 13 13 13 13 13 13 13 13 13 13 14 14 14 14 14 14 14 14 14 14
17 17 18 13 13 13 15 15 14 15 15 15 13 12 11 10 11 10 11 11 11 11 12 12 12 12 12 12 12 12 12 13 13 13 13 13 13 13 13 13 13 13 13 13 13 13 14 14 14
17 17 16 13 14 14 15 14 14 14 15 14 12 10 10 10 10 11 11 11 11 11 11 11 11 12 12 12 12 12 12 12 12 13 12 13 13 13 13 13 13 13 13 13 13 13 13 13 13
17 17 13 13 14 14 14 14 15 14 14 13 12 9 9 10 10 10 10 11 11 11 11 11 11 11 11 11 12 12 12 12 12 12 12 12 12 12 12 12 13 13 13 13 13 13 13 13 13
17 13 12 12 14 14 14 15 15 13 13 12 11 9 9 9 10 10 10 10 10 11 11 11 11 11 11 11 11 11 12 12 12 12 12 12 12 12 12 12 12 12 12 13 13 13 12 12 12
15 11 12 13 13 14 14 15 14 12 12 12 12 9 8 9 9 9 10 10 10 10 10 10 11 11 11 11 11 11 11 11 11 12 12 12 12 12 12 12 12 12 12 12 12 12 12 12 12
16 11 13 13 13 14 14 14 14 13 12 12 12 10 8 9 9 9 9 10 10 10 10 10 10 10 10 10 10 11 11 11 11 11 11 11 11 11 11 11 11 12 12 12 12 12 12 12 12
15 11 12 13 14 14 14 13 13 13 12 11 11 11 10 9 9 9 9 9 9 9 9 9 10 10 10 10 10 10 10 10 10 10 11 11 11 11 11 11 11 11 11 11 12 12 11 11 11
14 11 12 13 13 13 13 13 12 12 10 9 9 10 10 9 9 9 9 9 9 9 9 9 9 9 9 10 10 10 10 10 10 10 10 10 10 10 10 10 11 11 11 11 11 11 11 11 11
12 11 12 13 13 14 13 12 12 11 9 9 9 10 9 9 9 9 9 9 9 9 9 9 9 9 9 9 9 9 9 9 9 9 9 10 10 10 10 10 10 10 10 10 10 11 11 11 11
11 11 13 13 13 13 12 11 11 10 11 11 11 11 9 9 9 8 8 8 8 8 8 8 8 8 8 8 9 9 9 9 9 9 9 9 9 9 9 10 10 10 10 10 10 10 10 10 10
11 11 12 12 13 12 12 11 10 9 10 10 10 10 9 9 8 8 8 8 8 8 8 8 8 8 8 8 8 8 8 8 8 8 8 8 9 9 9 9 9 9 9 9 9 9 9 10 10
11 11 11 11 11 11 10 10 9 9 10 10 9 9 8 8 8 8 7 7 7 7 7 7 7 7 7 7 7 7 7 8 8 8 8 8 8 8 8 8 8 8 8 8 8 8 9 9 9
11 10 10 10 10 10 10 9 8 9 9 8 8 8 8 7 7 7 7 7 7 7 7 7 7 7 7 7 7 7 7 7 7 7 7 7 7 7 7 8 8 8 8 8 7 8 8 8 8
10 10 9 10 9 10 10 9 8 9 8 7 7 7 7 7 7 7 7 7 7 7 7 6 6 6 6 6 6 6 6 6 6 7 6 7 7 7 7 7 7 7 7 7 7 7 7 7 7
9 8 9 9 9 9 8 8 8 8 7 6 6 6 6 6 6 6 6 6 6 6 6 6 6 6 6 6 6 6 6 6 6 6 6 6 6 6 6 6 6 6 6 6 6 6 6 6 6
8 8 9 9 8 8 7 7 6 7 6 6 6 5 5 5 6 6 6 6 5 5 5 5 5 5 5 5 5 5 5 5 5 5 5 5 5 5 5 5 5 5 5 5 5 5 5 5 5
9 9 9 9 8 7 7 7 6 6 5 5 5 5 5 5 5 5 5 5 5 5 5 5 5 5 5 5 5 5 5 5 5 5 5 5 5 5 5 5 5 5 5 5 5 5 5 5 4
9 9 8 8 8 7 6 6 6 5 5 5 5 4 5 5 4 4 4 4 4 4 4 4 4 4 4 4 4 4 4 4 4 4 4 4 4 4 4 4 4 4 4 4 4 4 4 4 4
8 8 8 8 7 7 7 6 6 5 5 5 5 5 5 4 4 4 4 4 4 4 4 4 3 3 3 3 3 3 3 4 4 4 3 3 3 3 3 3 3 3 3 3 3 3 3 3 3
8 8 8 7 6 6 6 6 6 5 4 4 4 4 4 4 4 4 4 3 3 3 3 3 3 3 3 3 3 3 3 3 3 3 3 3 3 3 3 3 3 3 2 2 2 2 2 2 2
8 8 7 7 6 6 5 5 5 5 4 4 4 4 4 4 4 4 4 3 3 3 2 2 2 2 2 2 2 2 2 2 2 2 2 2 2 2 2 2 2 2 2 2 2 2 1 1 1
7 7 6 5 5 5 5 4 5 4 5 5 4 4 4 4 4 3 3 3 3 2 2 2 2 2 1 1 1 1 1 1 1 2 2 2 2 2 1 1 1 1 1 1 1 1 1 1 1
6 6 6 5 4 5 5 4 5 5 4 4 4 4 4 4 3 3 2 2 2 2 1 1 1 1 1 1 1 1 1 1 1 1 1 1 1 1 1 1 1 1 0 0 0 0 0 0 0
5 6 6 5 5 4 4 4 4 4 3 4 5 5 4 4 3 3 2 2 2 1 1 1 0 0 0 0 0 0 0 -0 -0 -0 -0 0 0 0 0 -0 -0 -0 -0 -0 -0 -0 -0 -0 -0
5 5 5 4 4 4 4 3 3 3 3 3 3 3 3 3 3 2 2 2 1 1 1 0 0 0 -0 -0 -0 -0 -1 -1 -1 -1 -1 -1 -1 -1 -1 -1 -1 -1 -1 -1 -1 -1 -1 -1 -1
5 4 3 4 4 4 4 3 4 3 3 2 1 1 2 2 2 2 1 1 1 1 0 0 -0 -0 -0 -1 -1 -1 -1 -1 -1 -1 -1 -1 -1 -1 -1 -1 -1 -1 -1 -2 -2 -2 -2 -2 -2
4 4 4 3 3 4 3 4 4 3 3 2 1 2 2 2 2 1 1 1 1 0 0 -0 -0 -1 -1 -1 -1 -1 -1 -1 -2 -2 -2 -2 -2 -2 -2 -2 -2 -2 -2 -2 -2 -2 -2 -2 -2
4 4 3 3 3 2 3 4 3 2 2 1 1 2 2 2 1 1 1 0 0 -0 -0 -1 -1 -1 -1 -1 -2 -2 -2 -2 -2 -2 -2 -2 -2 -2 -2 -3 -3 -3 -3 -3 -3 -3 -3 -3 -3
Wind_Speed
10 7 3 4 5 5 1 3 2 3 3 2 5 9 10 6 4 5 2 3 4 4 6 7 10 11 11 12 12 13 13 13 13 13 14 14 14 13 13 13 13 13 13 13 13 13 13 13 13
5 3 5 5 5 2 3 3 3 2 4 5 6 7 8 6 4 6 3 3 6 7 7 8 10 11 11 12 12 12 12 12 13 13 14 14 13 13 13 13 14 13 13 13 13 13 13 12 12
4 2 5 5 4 5 4 3 5 3 4 4 5 6 5 5 4 4 2 4 7 8 8 9 11 12 11 12 12 12 12 12 13 13 13 13 13 13 13 13 13 13 13 12 12 12 12 11 11
3 5 5 4 3 4 5 4 5 6 4 6 6 7 4 3 2 4 5 7 8 8 9 10 12 11 11 11 12 11 12 12 12 12 12 13 13 13 13 13 13 12 12 12 12 12 12 11 10
4 5 4 1 3 2 2 4 5 5 4 4 6 7 4 3 5 8 7 8 8 7 9 10 12 12 12 12 12 12 12 12 12 12 12 12 12 12 13 13 13 13 13 12 11 11 11 11 10
4 5 4 3 3 2 2 3 5 5 4 4 6 7 4 2 5 6 7 8 9 8 9 10 11 11 11 12 11 11 12 12 12 11 12 12 12 12 12 13 13 13 13 13 12 11 11 11 12
5 5 4 5 3 3 4 3 5 6 5 3 6 7 4 2 4 6 8 8 9 10 9 10 10 10 11 11 12 12 12 12 12 12 12 12 12 12 12 12 13 13 13 13 12 12 12 11 12
5 5 3 3 5 5 3 3 3 6 5 3 5 8 6 5 5 8 8 7 7 8 8 8 9 10 10 10 11 11 11 12 12 13 12 11 12 12 12 12 12 12 12 12 12 13 12 12 12
4 4 3 5 6 5 4 4 2 4 7 4 3 3 5 10 9 9 7 6 5 6 5 6 7 8 9 9 10 10 11 11 11 11 12 11 11 10 10 11 11 12 12 12 12 12 12 12 12
4 4 6 3 4 4 4 4 6 5 5 3 4 5 10 11 10 10 8 6 4 3 3 4 5 6 7 7 8 9 9 10 11 11 11 10 10 10 9 10 11 11 11 11 12 11 11 10 10
4 6 4 1 1 3 4 4 4 8 4 6 8 10 12 11 9 9 7 6 4 3 3 3 4 5 6 6 6 7 8 9 10 11 10 9 9 9 9 9 9 10 10 10 11 11 10 9 9
3 2 2 1 0 2 4 5 3 4 5 5 11 15 14 12 11 9 8 6 5 4 3 3 4 5 5 6 6 7 7 8 8 9 9 9 8 8 8 8 8 8 8 9 9 8 9 9 9
3 2 1 0 2 2 4 3 4 3 3 7 12 13 13 12 10 8 7 6 5 4 3 2 3 4 5 6 5 6 6 7 7 8 9 9 7 6 6 7 8 8 8 8 7 8 8 7 7
3 3 1 0 1 1 4 2 3 5 6 10 12 12 11 11 10 8 7 6 5 4 3 2 3 4 5 5 5 5 6 6 7 8 8 9 8 7 6 6 7 7 7 7 7 7 6 5 5
3 3 2 2 2 2 4 2 6 6 9 10 11 11 10 9 9 9 9 8 6 5 4 3 2 4 4 5 5 5 5 6 6 7 8 8 8 8 7 6 6 7 7 7 7 7 6 5 5
3 2 2 4 3 3 5 8 6 7 10 10 9 9 9 8 8 8 8 7 6 5 4 3 3 3 3 4 4 5 5 6 6 6 7 8 8 8 7 6 6 7 7 7 5 4 3 4 4
1 2 5 4 3 3 5 7 4 7 10 10 9 9 8 7 7 7 7 7 6 6 5 4 3 3 3 4 4 5 5 5 5 6 6 6 7 7 7 5 6 7 7 6 5 3 3 3 4
5 5 4 6 4 3 5 8 4 5 8 9 8 8 8 9 8 8 7 7 6 5 5 4 4 3 3 4 4 4 4 4 5 5 5 6 6 6 6 5 6 6 4 4 3 3 3 2 3
5 5 5 5 3 5 7 9 7 6 7 8 8 8 9 9 6 7 7 7 6 5 5 4 4 3 3 2 2 2 1 1 2 4 5 5 6 6 6 4 5 5 3 3 3 2 3 3 3
4 4 5 3 1 4 5 8 5 6 8 9 10 10 10 7 5 7 7 7 7 6 5 5 5 4 3 2 1 1 1 1 1 2 4 5 5 5 4 4 3 3 2 3 3 3 2 2 3
6 7 7 4 1 1 2 6 4 4 5 6 7 8 9 10 10 10 8 7 7 7 6 6 5 4 4 3 2 2 2 2 1 2 2 3 4 4 4 4 3 3 2 2 2 2 2 1 2
9 6 5 4 2 5 3 5 6 4 4 7 8 8 9 9 9 9 9 8 8 7 6 5 5 4 3 3 4 3 2 1 1 0 0 2 3 4 4 4 4 3 2 2 2 3 2 1 1
6 2 3 4 5 3 3 4 7 2 5 8 9 10 10 10 10 11 11 10 8 6 6 5 4 4 3 3 4 3 2 1 0 1 1 1 2 3 3 4 3 3 2 2 2 2 2 1 1
3 4 4 4 3 5 7 7 8 6 7 6 7 9 9 9 9 9 8 7 5 5 5 5 5 4 3 4 3 3 3 2 1 0 0 1 1 2 3 3 3 2 2 2 2 1 1 1 2
3 4 1 2 2 7 4 6 9 6 5 7 8 8 7 8 9 9 8 8 7 7 6 6 6 4 4 4 3 3 4 3 3 2 1 1 1 1 2 2 2 2 2 3 2 1 1 1 2
5 7 6 6 6 5 2 8 7 4 3 3 3 4 5 6 8 9 10 9 8 8 7 6 6 5 4 4 3 3 3 2 2 2 2 2 1 2 2 2 2 2 3 3 2 1 2 1 2
5 5 5 4 2 4 6 6 6 3 2 1 1 2 5 6 7 8 8 8 8 8 7 7 6 4 4 4 3 3 3 2 2 2 1 1 1 2 1 2 2 2 2 2 2 1 2 2 2
3 6 5 4 4 6 6 6 6 6 6 4 3 4 5 5 5 6 7 7 7 7 6 6 6 5 4 4 3 3 3 3 2 2 2 2 2 2 2 2 2 2 2 2 2 2 2 3 3
4 3 4 4 4 5 5 7 5 7 7 7 7 6 5 5 6 7 6 6 6 5 6 5 5 4 3 3 2 2 2 2 2 2 3 2 2 2 2 2 2 2 2 2 2 3 3 3 4
5 6 6 5 5 5 4 7 3 3 4 5 5 4 4 4 5 6 6 6 5 5 5 5 4 4 4 3 2 2 2 2 2 3 3 3 2 2 3 3 3 3 3 3 3 4 4 4 5
Wind_Direction
332 341 65 57 58 57 220 256 188 99 73 57 81 93 101 95 111 138 136 105 88 76 74 78 80 81 82 80 77 73 72 70 69 68 67 65 62 62 60 59 57 54 53 53 54 55 52 51 51
337 12 54 61 94 120 262 252 158 137 148 133 76 75 80 76 70 105 106 104 90 84 77 81 79 80 81 82 80 76 73 72 70 69 67 66 63 61 60 58 56 53 52 51 50 51 49 47 46
334 57 79 78 123 177 210 205 164 120 98 103 78 55 80 104 104 117 123 113 89 79 76 82 80 78 79 81 81 78 74 72 72 69 68 68 65 63 62 59 54 51 50 50 49 47 46 45 45
56 50 59 83 186 221 201 194 169 133 83 66 101 81 66 43 118 118 116 101 88 74 75 80 79 78 77 78 79 78 75 74 73 69 67 67 65 64 63 60 55 52 49 48 47 44 42 42 42
62 79 79 90 226 242 191 168 148 124 118 88 104 105 88 18 86 105 109 98 93 74 71 79 76 73 73 73 74 74 74 74 73 70 67 66 64 62 61 58 54 50 48 46 44 43 39 40 39
60 75 108 194 220 225 185 173 139 113 111 101 104 111 123 100 97 103 107 99 95 84 72 73 75 72 69 67 68 70 70 69 68 68 67 65 62 61 59 57 54 50 47 45 44 41 36 37 37
112 113 164 186 189 210 207 162 138 134 122 135 127 118 137 153 122 114 107 96 90 83 73 66 66 67 66 66 64 67 70 67 65 66 67 64 61 57 56 55 53 50 46 43 40 38 37 36 35
129 118 165 192 187 215 188 138 134 134 133 106 113 138 168 182 138 111 100 92 86 76 70 68 68 67 64 63 64 63 66 66 66 65 63 62 59 57 55 51 50 48 45 43 39 37 36 34 34
99 96 194 205 190 204 169 129 80 83 100 73 60 124 144 138 126 110 99 85 83 78 61 66 68 67 68 68 66 63 64 63 61 60 61 60 56 56 51 50 47 46 42 39 37 35 33 33 31
103 162 210 210 188 182 167 148 148 116 100 94 69 71 114 129 130 127 127 123 108 95 71 62 69 69 70 72 68 62 61 61 58 57 59 57 56 56 51 49 43 40 37 34 32 31 28 27 25
148 183 197 222 225 169 151 142 142 133 168 187 168 150 139 138 139 141 141 139 132 127 94 62 71 79 77 75 74 67 66 62 58 56 56 57 53 49 46 43 38 35 33 30 24 25 23 21 22
151 216 179 196 12 128 153 147 138 163 196 166 155 151 150 153 157 158 154 148 134 117 101 76 79 77 78 84 82 77 71 65 57 52 52 55 50 44 42 40 35 35 30 26 24 21 18 19 18
181 195 175 139 70 98 118 144 154 185 152 131 136 144 155 159 159 158 153 145 134 124 112 100 88 81 81 83 80 77 73 71 63 55 51 54 52 43 41 39 34 30 28 26 23 22 17 14 14
178 146 145 144 116 143 145 164 144 206 147 136 145 157 162 164 161 154 153 151 148 142 132 114 92 86 84 82 82 82 80 78 70 61 53 54 56 49 44 38 31 26 24 24 23 22 15 10 13
96 89 347 262 192 186 135 253 219 188 149 151 159 164 166 166 162 166 167 163 161 156 142 129 117 92 91 93 93 89 85 79 71 62 56 55 55 53 48 39 30 20 20 25 24 22 18 15 15
83 93 258 255 186 180 158 241 229 168 158 166 170 171 172 175 173 170 164 160 159 154 150 150 124 102 95 91 92 91 88 81 72 65 57 53 52 53 51 42 26 21 25 28 25 24 13 10 6
81 217 238 259 204 162 186 241 232 173 168 177 181 179 176 175 177 172 167 163 162 160 153 144 129 126 114 100 93 92 88 80 71 62 57 52 49 49 52 45 30 27 31 29 20 21 15 4 359
212 219 233 233 213 172 215 245 232 192 183 187 187 185 182 185 189 177 169 163 159 157 150 145 139 134 119 105 93 81 73 66 63 58 51 47 47 46 48 45 33 33 32 22 14 9 9 359 346
187 199 233 245 192 184 222 247 243 202 198 199 196 193 195 199 186 170 166 158 152 152 152 154 148 146 133 121 113 104 81 52 45 55 52 48 48 47 47 39 31 29 27 10 6 6 5 4 358
226 233 251 280 211 205 240 260 253 210 203 201 197 199 199 190 175 177 168 164 164 165 168 167 165 161 155 154 153 148 144 120 80 63 49 45 44 43 45 41 28 20 18 10 8 12 0 352 9
234 223 232 235 333 287 308 291 243 224 201 203 201 198 196 189 188 185 178 178 172 173 177 177 174 165 159 140 114 93 65 54 54 30 25 34 41 43 44 41 32 18 27 8 360 5 12 337 347
239 232 219 195 179 247 193 268 265 220 217 216 214 207 205 199 192 186 181 181 182 182 177 171 167 158 155 140 140 138 133 148 222 234 350 14 33 39 41 38 36 27 29 18 3 22 351 341 319
221 227 200 200 193 244 225 225 275 219 233 230 217 212 210 201 192 188 186 184 182 176 172 167 158 157 157 154 158 151 141 158 108 46 51 12 16 25 32 35 38 28 21 17 15 12 1 341 297
150 60 50 48 100 245 220 200 263 222 215 221 213 211 208 198 190 186 180 168 168 166 164 161 160 164 168 166 164 158 157 156 137 84 353 333 343 356 10 26 26 16 6 357 352 357 349 329 317
113 102 33 319 265 246 202 208 245 236 215 209 210 208 201 189 182 178 173 172 172 171 172 170 168 174 176 169 170 171 172 174 181 195 206 226 303 318 327 349 353 348 340 339 345 350 326 312 304
191 162 176 213 233 266 228 230 247 246 251 234 213 196 184 181 180 179 179 177 176 176 177 177 178 178 176 174 178 177 174 180 197 209 208 217 240 256 286 303 310 324 329 329 333 326 305 310 294
166 199 179 157 223 255 253 267 287 245 274 261 198 170 189 190 184 179 175 174 174 176 180 181 178 178 178 177 175 178 180 187 201 216 221 233 245 261 276 293 289 302 306 305 305 290 292 294 282
164 155 124 157 200 246 263 250 239 227 234 235 222 211 203 190 180 174 174 174 175 176 175 171 171 177 180 177 184 193 196 200 205 206 220 240 246 259 256 278 277 287 286 284 278 281 280 281 279
157 173 172 175 195 201 250 260 232 216 217 216 220 211 198 191 184 178 174 170 165 161 164 166 166 162 169 182 187 186 204 205 204 213 226 230 241 247 251 261 268 270 278 273 271 273 276 276 279
189 193 166 179 229 212 226 267 292 236 225 208 214 207 197 183 176 171 164 158 156 160 165 167 169 173 181 181 177 191 206 208 211 225 234 234 240 251 256 260 266 267 274 274 268 273 275 269 272
Height
1516 1516 1517 1519 1523 1534 1535 1530 1524 1524 1525 1526 1526 1526 1529 1535 1540 1548 1546 1545 1546 1547 1547 1548 1548 1548 1548 1548 1547 1547 1547 1546 1546 1546 1545 1545 1544 1544 1544 1543 1543 1543 1543 1542 1542 1542 1541 1541 1541
1516 1517 1519 1519 1530 1541 1537 1528 1525 1524 1525 1526 1527 1528 1531 1536 1539 1541 1542 1544 1546 1546 1547 1547 1548 1548 1547 1547 1547 1547 1547 1546 1546 1546 1545 1545 1545 1544 1544 1543 1543 1543 1543 1542 1542 1542 1542 1541 1541
1516 1516 1519 1522 1532 1538 1531 1525 1524 1524 1524 1524 1528 1530 1534 1537 1539 1541 1542 1544 1545 1546 1547 1547 1547 1547 1547 1547 1547 1547 1547 1546 1546 1546 1545 1545 1544 1544 1544 1543 1543 1543 1542 1542 1542 1542 1542 1541 1541
1516 1518 1519 1528 1531 1528 1524 1523 1522 1523 1524 1525 1527 1533 1536 1539 1540 1541 1542 1543 1545 1546 1546 1547 1547 1547 1547 1547 1547 1547 1546 1546 1546 1545 1545 1545 1544 1544 1543 1543 1542 1542 1542 1542 1542 1542 1541 1541 1541
1515 1517 1524 1532 1528 1524 1521 1521 1521 1522 1523 1526 1527 1532 1537 1539 1540 1541 1542 1543 1544 1545 1546 1546 1546 1546 1546 1546 1546 1546 1546 1546 1545 1545 1545 1544 1544 1543 1543 1543 1542 1542 1542 1541 1541 1541 1541 1541 1541
1515 1517 1531 1534 1528 1523 1521 1520 1521 1522 1524 1526 1528 1532 1537 1539 1539 1540 1541 1543 1544 1545 1545 1545 1546 1546 1546 1546 1546 1546 1545 1545 1544 1544 1544 1544 1543 1543 1543 1542 1542 1541 1541 1541 1541 1541 1541 1541 1541
1515 1521 1528 1528 1526 1523 1521 1520 1521 1522 1524 1526 1527 1532 1536 1538 1539 1540 1541 1542 1543 1544 1545 1545 1545 1545 1545 1545 1545 1545 1545 1544 1544 1543 1543 1543 1542 1542 1542 1542 1541 1541 1541 1541 1540 1540 1540 1540 1540
1513 1519 1523 1525 1524 1522 1519 1519 1520 1521 1523 1526 1527 1529 1533 1536 1537 1539 1540 1541 1542 1543 1544 1544 1545 1545 1545 1545 1545 1545 1544 1544 1543 1543 1542 1542 1542 1542 1541 1541 1541 1540 1540 1540 1540 1539 1539 1539 1539
1513 1522 1525 1522 1520 1518 1517 1518 1520 1521 1523 1525 1526 1528 1530 1533 1535 1537 1539 1540 1541 1542 1543 1543 1544 1544 1544 1544 1544 1544 1544 1543 1543 1542 1542 1541 1541 1541 1540 1540 1540 1539 1539 1539 1539 1538 1538 1538 1538
1513 1522 1519 1515 1514 1514 1515 1516 1519 1521 1523 1525 1526 1527 1529 1531 1533 1535 1536 1537 1539 1540 1541 1542 1543 1543 1543 1543 1543 1543 1543 1542 1542 1542 1541 1541 1540 1540 1540 1539 1539 1538 1538 1538 1537 1537 1537 1537 1537
1511 1515 1513 1513 1512 1513 1514 1516 1518 1519 1523 1522 1522 1524 1527 1530 1531 1533 1534 1536 1538 1539 1540 1541 1541 1542 1542 1542 1542 1542 1542 1541 1541 1541 1540 1540 1539 1539 1538 1538 1538 1537 1537 1536 1536 1536 1536 1536 1536
1511 1511 1511 1511 1512 1512 1514 1515 1518 1518 1518 1519 1520 1522 1524 1527 1529 1531 1532 1535 1536 1537 1538 1539 1540 1540 1541 1541 1541 1541 1541 1540 1540 1540 1539 1539 1538 1538 1537 1537 1536 1536 1536 1535 1535 1534 1534 1534 1534
1510 1511 1511 1511 1511 1512 1514 1515 1516 1517 1518 1518 1520 1522 1523 1525 1527 1530 1532 1533 1535 1536 1537 1538 1538 1539 1539 1540 1540 1539 1539 1539 1539 1538 1538 1538 1537 1537 1536 1536 1535 1535 1534 1534 1533 1533 1533 1533 1533
1509 1510 1511 1511 1511 1512 1514 1515 1516 1515 1517 1517 1519 1520 1522 1523 1525 1527 1529 1531 1532 1534 1535 1536 1537 1537 1538 1538 1538 1538 1538 1538 1538 1537 1537 1536 1536 1535 1535 1534 1534 1534 1533 1532 1532 1531 1531 1531 1531
1509 1512 1512 1511 1511 1512 1514 1516 1514 1513 1515 1516 1517 1519 1521 1522 1524 1525 1526 1528 1530 1532 1533 1534 1535 1535 1536 1536 1536 1537 1537 1537 1536 1536 1536 1535 1535 1534 1533 1533 1533 1532 1532 1531 1530 1530 1529 1529 1528
1510 1514 1516 1511 1511 1511 1515 1515 1510 1511 1513 1514 1516 1517 1519 1520 1522 1524 1525 1527 1529 1530 1531 1532 1533 1533 1534 1534 1535 1535 1535 1535 1535 1534 1534 1533 1533 1532 1532 1531 1531 1530 1530 1529 1529 1528 1527 1527 1526
1515 1518 1515 1512 1510 1511 1513 1511 1508 1509 1511 1512 1514 1515 1517 1518 1520 1521 1523 1525 1526 1528 1528 1529 1530 1531 1532 1532 1533 1533 1533 1533 1533 1533 1532 1532 1531 1531 1530 1529 1529 1528 1528 1527 1527 1526 1525 1525 1524
1516 1516 1513 1511 1509 1511 1512 1509 1508 1508 1509 1510 1512 1513 1514 1515 1516 1519 1521 1522 1524 1525 1526 1527 1528 1529 1529 1530 1530 1531 1531 1531 1531 1531 1531 1530 1529 1529 1528 1527 1527 1526 1526 1525 1525 1524 1524 1523 1522
1507 1509 1509 1507 1506 1510 1510 1508 1506 1507 1508 1508 1509 1510 1511 1512 1515 1517 1518 1519 1521 1522 1523 1524 1525 1526 1526 1527 1527 1528 1528 1529 1529 1529 1528 1528 1527 1527 1526 1525 1525 1524 1524 1523 1522 1522 1522 1521 1520
1505 1507 1508 1507 1506 1508 1509 1508 1504 1504 1504 1503 1504 1505 1507 1509 1511 1513 1514 1516 1517 1518 1519 1520 1522 1523 1524 1524 1525 1526 1526 1526 1527 1526 1526 1526 1525 1524 1524 1523 1523 1522 1521 1521 1520 1520 1519 1519 1518
1504 1506 1506 1507 1507 1507 1508 1506 1503 1500 1500 1501 1501 1501 1503 1504 1506 1508 1509 1511 1513 1514 1515 1517 1518 1520 1521 1522 1523 1523 1523 1523 1524 1524 1524 1523 1523 1522 1522 1521 1520 1519 1519 1518 1517 1517 1517 1516 1516
1503 1500 1502 1505 1510 1513 1510 1512 1499 1498 1498 1497 1497 1497 1498 1500 1502 1503 1505 1507 1509 1511 1513 1514 1516 1517 1518 1519 1519 1520 1520 1520 1521 1521 1521 1520 1520 1520 1519 1518 1518 1517 1516 1516 1515 1515 1514 1514 1513
1498 1497 1500 1503 1507 1511 1511 1513 1501 1496 1495 1492 1491 1492 1493 1494 1496 1499 1501 1503 1505 1508 1510 1511 1513 1514 1515 1516 1517 1518 1518 1518 1518 1518 1518 1518 1517 1517 1516 1516 1515 1514 1514 1513 1512 1512 1512 1511 1511
1497 1500 1503 1507 1510 1512 1506 1512 1499 1494 1488 1485 1485 1486 1487 1490 1492 1495 1498 1500 1502 1505 1506 1508 1509 1511 1512 1513 1514 1515 1515 1515 1515 1515 1515 1515 1514 1514 1513 1513 1512 1512 1511 1510 1509 1509 1509 1508 1508
1497 1504 1511 1512 1515 1507 1502 1503 1493 1483 1481 1480 1480 1481 1483 1485 1488 1491 1493 1496 1498 1500 1502 1504 1506 1507 1509 1510 1511 1512 1512 1513 1512 1512 1512 1512 1511 1511 1510 1510 1509 1509 1508 1507 1506 1506 1505 1505 1504
1496 1498 1506 1510 1511 1506 1502 1500 1487 1480 1478 1477 1477 1478 1480 1482 1484 1486 1489 1492 1494 1496 1499 1501 1502 1504 1505 1506 1507 1509 1509 1510 1510 1510 1509 1509 1508 1508 1507 1507 1506 1505 1504 1504 1503 1502 1502 1501 1500
1495 1498 1497 1505 1508 1508 1501 1494 1485 1478 1477 1476 1476 1476 1477 1479 1481 1483 1486 1488 1491 1493 1495 1497 1499 1500 1502 1503 1504 1505 1506 1506 1507 1506 1506 1506 1505 1504 1504 1503 1502 1502 1501 1500 1499 1498 1498 1497 1497
1490 1493 1501 1504 1506 1503 1494 1492 1484 1478 1476 1475 1475 1475 1475 1477 1479 1481 1483 1486 1488 1491 1493 1495 1496 1498 1499 1500 1501 1502 1502 1503 1503 1503 1502 1502 1501 1501 1500 1499 1498 1498 1497 1496 1495 1494 1494 1493 1492
1492 1494 1494 1500 1501 1500 1498 1487 1474 1472 1471 1472 1472 1472 1473 1474 1476 1479 1481 1484 1486 1488 1490 1492 1493 1495 1496 1497 1498 1498 1499 1499 1499 1499 1499 1498 1498 1497 1496 1495 1494 1494 1493 1492 1491 1490 1490 1489 1488
1487 1488 1492 1497 1498 1498 1496 1485 1471 1470 1469 1470 1470 1471 1472 1473 1475 1477 1480 1482 1484 1485 1487 1488 1490 1491 1492 1493 1494 1494 1495 1495 1495 1495 1494 1494 1494 1493 1493 1492 1490 1490 1489 1488 1487 1486 1485 1484 1483